Dassault Systemes SA Gross Margin 2010-2023 | DASTY

Current and historical gross margin for Dassault Systemes SA (DASTY) over the last 10 years. The current gross profit margin for Dassault Systemes SA as of September 30, 2023 is %.
Dassault Systemes SA Gross Margin Historical Data
Date TTM Revenue TTM Gross Profit Gross Margin
2023-09-30 $4.47B $3.72B 83.26%
2023-03-31 $5.98B $5.02B 83.91%
2022-09-30 $5.81B $4.87B 83.93%
2022-03-31 $5.82B $4.89B 83.94%
2021-12-31 $5.75B $4.82B 83.74%
2021-09-30 $5.63B $4.71B 83.69%
2021-06-30 $5.47B $4.56B 83.37%
2021-03-31 $5.25B $4.37B 83.29%
2020-12-31 $5.09B $4.23B 83.13%
2020-09-30 $4.95B $4.09B 82.77%
2020-06-30 $4.76B $3.97B 83.32%
2020-03-31 $4.66B $3.90B 83.70%
2019-12-31 $4.50B $3.79B 84.27%
2019-09-30 $4.39B $3.73B 85.00%
2019-06-30 $4.33B $3.69B 85.11%
2019-03-31 $4.25B $3.63B 85.41%
2018-12-31 $4.11B $3.50B 85.32%
2018-09-30 $3.98B $3.39B 85.31%
2018-06-30 $3.90B $3.33B 85.42%
2018-03-31 $3.79B $3.23B 85.39%
2017-12-31 $3.65B $3.11B 85.28%
2017-09-30 $3.53B $3.01B 85.22%
2017-06-30 $3.46B $2.95B 85.13%
2017-03-31 $3.43B $2.91B 84.89%
2016-12-31 $3.38B $2.87B 84.83%
2016-09-30 $3.25B $2.74B 84.29%
2016-06-30 $3.18B $2.68B 84.15%
2016-03-31 $3.12B $2.63B 84.16%
2015-12-31 $3.15B $2.67B 84.53%
2015-09-30 $3.11B $2.61B 83.91%
2015-06-30 $3.07B $2.58B 83.83%
2015-03-31 $3.03B $2.55B 84.17%
2014-12-31 $2.93B $2.47B 84.43%
2014-09-30 $2.92B $2.51B 85.93%
2014-06-30 $2.89B $2.51B 86.88%
2014-03-31 $2.83B $2.47B 87.27%
2013-12-31 $2.77B $2.42B 87.46%
2013-09-30 $2.77B $2.42B 87.49%
2013-06-30 $2.73B $2.39B 87.45%
2013-03-31 $2.65B $2.31B 87.19%
2012-12-31 $2.63B $2.29B 86.99%
2012-09-30 $2.55B $2.21B 86.72%
2012-06-30 $2.50B $2.16B 86.27%
2012-03-31 $2.51B $2.15B 85.89%
2011-12-31 $2.46B $2.11B 85.87%
2011-09-30 $2.41B $2.08B 85.96%
2011-06-30 $2.33B $2.01B 85.98%
2011-03-31 $2.21B $1.91B 86.31%
2010-12-31 $2.07B $1.78B 85.84%
2010-09-30 $1.94B $1.65B 85.24%
2010-06-30 $1.85B $1.57B 84.96%
2010-03-31 $1.79B $1.51B 84.55%
2009-12-31 $1.78B $1.51B 84.61%
Sector Industry Market Cap Revenue
Computer and Technology Computer Software $56.522B $6.441B
Dassault Systemes is a worldwide recognized leader in CAD/CAM/CAE and PDM II markets. The company's mission to provide solutions to enable customersto build their digital enterprise, by defining, simulating, managing and optimizing concurrently product, manufacturing process, and resources. In this virtual space, customers create innovative, high quality, safe and affordable products. The company delivers scaleable process and design-centric solutions on both Unix and Windows NT environments.
Stock Name Country Market Cap PE Ratio
Microsoft (MSFT) United States $3173.595B 36.97
Oracle (ORCL) United States $341.061B 27.76
Salesforce (CRM) United States $269.656B 45.08
Adobe (ADBE) United States $216.523B 36.20
Intuit (INTU) United States $185.433B 57.69
Synopsys (SNPS) United States $89.411B 61.91
Cadence Design Systems (CDNS) United States $80.195B 76.35
Autodesk (ADSK) United States $46.362B 45.30
ANSYS (ANSS) United States $28.650B 53.02
MicroStrategy (MSTR) United States $27.388B 0.00
PTC (PTC) United States $21.857B 57.97
SS&C Technologies Holdings (SSNC) United States $15.324B 14.51
Manhattan Associates (MANH) United States $13.875B 73.64
Descartes Systems Group (DSGX) Canada $8.441B 73.89
Open Text (OTEX) Canada $8.282B 8.34
Trend Micro (TMICY) Japan $6.479B 46.93
Pegasystems (PEGA) United States $5.156B 45.59
CommVault Systems (CVLT) United States $4.801B 78.46
Blackbaud (BLKB) United States $4.089B 35.20
ACI Worldwide (ACIW) United States $3.740B 17.91
Progress Software (PRGS) United States $2.186B 13.90
Verint Systems (VRNT) United States $1.925B 17.94
Sapiens (SPNS) Israel $1.877B 25.59
BlackBerry (BB) Canada $1.676B 0.00
PROS Holdings (PRO) United States $1.466B 0.00
Simulations Plus (SLP) United States $0.993B 73.04
Rand Worldwide (RWWI) United States $0.647B 0.00
Magic Software Enterprises (MGIC) Israel $0.513B 10.88
American Software (AMSWA) United States $0.359B 30.00
Canaan (CAN) China $0.238B 0.00
OptimizeRx (OPRX) United States $0.225B 0.00
Rigetti Computing (RGTI) United States $0.182B 0.00
Icad Inc (ICAD) United States $0.043B 0.00
Neonode (NEON) Sweden $0.037B 0.00
NetSol Technologies (NTWK) United States $0.030B 0.00
Smith Micro Software (SMSI) United States $0.024B 0.00
Hanryu Holdings (HRYU) South Korea $0.022B 0.00
Wetouch Technology (WETH) $0.021B 0.00
GSE Systems (GVP) United States $0.011B 0.00
SAP SE (SAP) Germany $0.000B 49.88